Location: Morisset
(33.1080°S, 151.4871°E)
Time: 08:47:06
(UTC+00:00)

Cosmos 676 Rocket - Pass Details

Date: 29 October 2020
Orbit: 754 x 784 km, 74.0° (Epoch: 28 November)

Event Time Altitude Azimuth Distance (km) Brightness Sun altitude
Rises 18:02:21 0° 197° (SSW) 3,296 7.4 -11.5°
Reaches altitude 10° 18:04:46 10° 196° (SSW) 2,358 6.6 -11.0°
Maximum altitude 18:10:09 85° 106° (ESE) 789 4.1 -10.0°
Drops below altitude 10° 18:15:25 10° 17° (NNE) 2,310 6.4 -9.0°
Sets 18:17:46 0° 16° (NNE) 3,224 7.2 -8.5°
